YAMAL 401

Last updated on Sun Apr 12 2026 00:02:53 GMT+0000 (Coordinated Universal Time)

1 40345U 14082A 26101.53854413 -.00000227 00000+0 00000+0 0 9994 2 40345 0.0028 195.6908 0001019 244.3786 43.5105 1.00270769 41253
UTC large
Height (km)
Speed (km/s)
/
Latitude / Longitude
Inclination (degrees)
Orbital Period (minutes)
Azimuth
Elevation
Range (km)
Doppler Factor

Next 0 passes for location: London (51.5072 / 0.1276)

Sorry there are no passes over London.
YAMAL 401